Location: Hains Lake
(37.8540°N, 99.8578°W)
Time: 15:44:48
(UTC+00:00)

Vanguard 1 - Pass Details

Date: 01 December 2022
Orbit: 649 x 3831 km, 34.2° (Epoch: 31 January)

Event Time Altitude Azimuth Distance (km) Brightness Sun altitude
Exits shadow 09:56:56 26° 154° (SSE) 2,472 12.1 -42.7°
Drops below altitude 10° 10:02:04 10° 135° (SE) 4,104 13.6 -41.7°
Sets 10:06:47 0° 129° (SE) 5,656 14.5 -40.8°
